Calaveras, Mexico

3:25 PM MST on December 06, 2016 (GMT -0700)
Gen Rafael Buelna International

Weather History for MMMZ - February, 2014

Change the Weather History Date:

Wednesday, February 19, 2014

  Actual Average Record
Temperature  
Mean Temperature 72 °F -  
Max Temperature 84 °F 78 °F 86 °F (2016)
Min Temperature 59 °F 51 °F 46 °F (1999)
Cooling Degree Days 6    
Growing Degree Days 22 (Base 50)    
Moisture  
Dew Point 60 °F    
Average Humidity 74    
Maximum Humidity 100    
Minimum Humidity 48    
Precipitation  
Precipitation 0.00 in - - ()
Sea Level Pressure  
Sea Level Pressure 29.86 in    
Wind  
Wind Speed 7 mph ()    
Max Wind Speed 13 mph    
Max Gust Speed -    
Visibility 7.7 miles    
Events      
Averages and records for this station are not official NWS values.
T = Trace of Precipitation, MM = Missing Value Source: Averaged Metar Reports

Daily Weather History Graph

Daily Weather History Graph

Search for Another Location

Airport or City:

Trip Planner

Search our weather history database for the weather conditions in past years. The results will help you decide how hot, cold, wet, or windy it might be!

Date:

Astronomy

Feb. 19, 2014 Rise Set
Actual Time 6:34 AM MST 6:03 PM MST
Civil Twilight 6:11 AM MST 6:26 PM MST
Nautical Twilight 5:45 AM MST 6:52 PM MST
Astronomical Twilight 5:19 AM MST 7:18 PM MST
Moon 10:21 PM MST (2/19) 9:17 AM MST (2/19)
Length of Visible Light 12h 14m
Length of Day
11h 28m
Waning Gibbous, 79% of the Moon is Illuminated
Feb 19
Waning Gibbous
Feb 22
Last Quarter
Mar 1
New
Mar 8
First Quarter
Mar 16
Full

Hourly Weather History & Observations

Time (MST) Temp. Heat Index Dew Point Humidity Pressure Visibility Wind Dir Wind Speed Gust Speed Precip Events Conditions
12:47 AM 62.6 °F - 55.4 °F 77% 29.89 in 10.0 mi NNE 5.8 mph - N/A   Mostly Cloudy
1:43 AM 62.6 °F - 55.4 °F 77% 29.89 in 10.0 mi NW 5.8 mph - N/A   Scattered Clouds
2:42 AM 60.8 °F - 53.6 °F 77% 29.87 in 10.0 mi NNE 8.1 mph - N/A   Scattered Clouds
3:42 AM 60.8 °F - 53.6 °F 77% 29.86 in 10.0 mi NNE 6.9 mph - N/A   Scattered Clouds
4:26 AM 59.0 °F - 57.2 °F 94% 29.86 in 2.0 mi NNE 6.9 mph - N/A   Scattered Clouds
4:44 AM 59.0 °F - 57.2 °F 94% 29.87 in 2.0 mi Calm Calm - N/A   Scattered Clouds
5:42 AM 60.8 °F - 53.6 °F 77% 29.88 in 2.0 mi East 8.1 mph - N/A   Scattered Clouds
6:41 AM 62.6 °F - 59.0 °F 88% 29.89 in 2.0 mi North 8.1 mph - N/A   Overcast
7:05 AM 62.6 °F - 60.8 °F 94% 29.89 in 0.8 mi North 9.2 mph - N/A   Overcast
7:12 AM 62.6 °F - 62.6 °F 100% 29.89 in 0.6 mi North 8.1 mph - N/A   Overcast
7:43 AM 68.0 °F - 66.2 °F 94% 29.90 in 1.0 mi North 9.2 mph - N/A   Scattered Clouds
8:05 AM 69.8 °F - 66.2 °F 88% 29.90 in 2.0 mi North 8.1 mph - N/A   Scattered Clouds
8:28 AM 69.8 °F - 66.2 °F 88% 29.90 in 3.0 mi NNE 6.9 mph - N/A   Scattered Clouds
8:45 AM 73.4 °F - 68.0 °F 83% 29.91 in 5.0 mi NE 8.1 mph - N/A   Partly Cloudy
9:41 AM 77.0 °F - 68.0 °F 74% 29.91 in 10.0 mi SSW 6.9 mph - N/A   Partly Cloudy
10:53 AM 80.6 °F 81.8 °F 62.6 °F 54% 29.90 in 12.0 mi SW 6.9 mph - N/A   Clear
11:42 AM 84.2 °F 85.6 °F 64.4 °F 51% 29.86 in 14.0 mi SSW 9.2 mph - N/A   Clear
12:51 PM 82.4 °F 83.4 °F 62.6 °F 51% 29.84 in 14.0 mi South 9.2 mph - N/A   Partly Cloudy
1:48 PM 84.2 °F 85.0 °F 62.6 °F 48% 29.81 in 15.0 mi SSW 10.4 mph - N/A   Partly Cloudy
2:41 PM 84.2 °F 85.0 °F 62.6 °F 48% 29.80 in 15.0 mi SSW 12.7 mph - N/A   Partly Cloudy
3:41 PM 80.6 °F 81.8 °F 62.6 °F 54% 29.79 in 15.0 mi SW 12.7 mph - N/A   Partly Cloudy
4:42 PM 80.6 °F 81.8 °F 62.6 °F 54% 29.80 in 12.0 mi WSW 11.5 mph - N/A   Partly Cloudy
5:40 PM 75.2 °F - 60.8 °F 61% 29.81 in 10.0 mi WSW 9.2 mph - N/A   Partly Cloudy
6:50 PM 71.6 °F - 59.0 °F 64% 29.82 in 10.0 mi West 8.1 mph - N/A   Scattered Clouds
7:41 PM 68.0 °F - 57.2 °F 68% 29.84 in 10.0 mi ESE 6.9 mph - N/A   Clear
8:42 PM 64.4 °F - 55.4 °F 73% 29.85 in 10.0 mi East 5.8 mph - N/A   Clear
9:49 PM 60.8 °F - 53.6 °F 77% 29.87 in 10.0 mi North 6.9 mph - N/A   Clear
10:46 PM 62.6 °F - 57.2 °F 82% 29.88 in 3.0 mi North 8.1 mph - N/A   Clear
11:42 PM 60.8 °F - 53.6 °F 77% 29.87 in 3.0 mi NNE 9.2 mph - N/A   Clear